Change the Weather History Date:

Sunday, May 5, 2013

  Actual Average (LRAR) Record (LRAR)
Temperature  
Mean Temperature 66 °F -  
Max Temperature 79 °F 73 °F 84 °F (2003)
Min Temperature 53 °F 52 °F 39 °F (2011)
Cooling Degree Days 1    
Growing Degree Days 16 (Base 50)    
Moisture  
Dew Point 55 °F    
Average Humidity 63    
Maximum Humidity 94    
Minimum Humidity 38    
Precipitation  
Precipitation 0.08 in 0.07 in - ()
Sea Level Pressure  
Sea Level Pressure 30.10 in    
Wind  
Wind Speed 7 mph ()    
Max Wind Speed 14 mph    
Max Gust Speed -    
Visibility 7.4 miles    
Events Fog , Rain , Thunderstorm    
Averages and records for this station are not official NWS values.
T = Trace of Precipitation, MM = Missing Value Source: Averaged Metar Reports

Daily Weather History Graph

Daily Weather History Graph

Search for Another Location

Airport or City:

Trip Planner

Search our weather history database for the weather conditions in past years. The results will help you decide how hot, cold, wet, or windy it might be!

Date:

Astronomy

May. 05, 2013 Rise Set
Actual Time 5:20 AM CEST 7:53 PM CEST
Civil Twilight 4:46 AM CEST 8:27 PM CEST
Nautical Twilight 4:03 AM CEST 9:10 PM CEST
Astronomical Twilight 3:14 AM CEST 9:59 PM CEST
Moon 2:56 AM CEST (5/5) 3:20 PM CEST (5/5)
Length of Visible Light 15h 41m
Length of Day
14h 33m
Waning Crescent, 20% of the Moon is Illuminated
May 5
Waning Crescent
May 10
New
May 18
First Quarter
May 25
Full
May 31
Last Quarter

Hourly Weather History & Observations

Time (CEST) Temp. Dew Point Humidity Pressure Visibility Wind Dir Wind Speed Gust Speed Precip Events Conditions
12:45 AM 59.0 °F 55.4 °F 88% 30.06 in - North 2.3 mph - N/A   Clear
1:45 AM 59.0 °F 53.6 °F 82% 30.09 in - NW 4.6 mph - N/A   Clear
2:00 AM 59 °F 54 °F 78% 30.08 in 22 mi NW 4.5 mph - -   Partly Cloudy
2:45 AM 55.4 °F 53.6 °F 94% 30.09 in - North 2.3 mph - N/A   Clear
3:45 AM 55.4 °F 53.6 °F 94% 30.09 in - North 4.6 mph - N/A   Clear
4:45 AM 53.6 °F 51.8 °F 94% 30.09 in 6.2 mi North 2.3 mph - N/A Fog Shallow Fog
5:45 AM 55.4 °F 53.6 °F 94% 30.09 in - NNW 6.9 mph - N/A   Clear
6:15 AM 57.2 °F 53.6 °F 88% 30.09 in - North 3.5 mph - N/A   Clear
6:45 AM 59.0 °F 55.4 °F 88% 30.09 in - North 3.5 mph - N/A   Clear
7:15 AM 60.8 °F 55.4 °F 82% 30.12 in - North 6.9 mph - N/A   Clear
7:45 AM 60.8 °F 57.2 °F 88% 30.12 in - NNE 5.8 mph - N/A   Clear
8:00 AM 61 °F 56 °F 80% 30.12 in 12 mi NNE 6.7 mph - -   Partly Cloudy
8:15 AM 62.6 °F 57.2 °F 82% 30.12 in - North 6.9 mph - N/A   Clear
8:45 AM 64.4 °F 57.2 °F 77% 30.12 in - North 6.9 mph - N/A   Clear
9:15 AM 64.4 °F 57.2 °F 77% 30.12 in - North 9.2 mph - N/A   Clear
9:45 AM 68.0 °F 57.2 °F 68% 30.12 in - North 9.2 mph - N/A   Clear
10:15 AM 68.0 °F 55.4 °F 64% 30.15 in - North 10.4 mph - N/A   Clear
10:45 AM 71.6 °F 55.4 °F 57% 30.15 in - North 8.1 mph - N/A   Clear
11:15 AM 71.6 °F 55.4 °F 57% 30.15 in - North 10.4 mph - N/A   Clear
11:45 AM 71.6 °F 57.2 °F 60% 30.15 in - North 9.2 mph - N/A   Clear
12:15 PM 73.4 °F 57.2 °F 57% 30.12 in - NNE 10.4 mph - N/A   Clear
12:45 PM 75.2 °F 57.2 °F 53% 30.12 in - NE 10.4 mph - N/A   Clear
1:15 PM 78.8 °F 57.2 °F 47% 30.12 in - North 11.5 mph - N/A   Clear
1:45 PM 77.0 °F 55.4 °F 47% 30.12 in - NNE 11.5 mph - N/A   Clear
2:00 PM 77 °F 56 °F 38% 30.11 in 31 mi NNE 11.2 mph - -   Partly Cloudy
2:15 PM 78.8 °F 53.6 °F 42% 30.09 in - North 13.8 mph - N/A   Clear
2:45 PM 78.8 °F 55.4 °F 44% 30.09 in - North 12.7 mph - N/A   Clear
3:15 PM 78.8 °F 55.4 °F 44% 30.09 in - NNE 12.7 mph - N/A   Clear
3:45 PM 78.8 °F 53.6 °F 42% 30.09 in - North 11.5 mph - N/A   Clear
4:15 PM 77.0 °F 53.6 °F 44% 30.09 in - NNE 10.4 mph - N/A   Clear
4:45 PM 77.0 °F 53.6 °F 44% 30.09 in - NNE 10.4 mph - N/A   Clear
5:15 PM 77.0 °F 53.6 °F 44% 30.09 in - NNE 10.4 mph - N/A   Clear
5:45 PM 75.2 °F 55.4 °F 50% 30.09 in - NNE 10.4 mph - N/A   Clear
6:15 PM 75.2 °F 55.4 °F 50% 30.09 in - North 10.4 mph - N/A   Clear
6:45 PM 73.4 °F 53.6 °F 50% 30.09 in - North 11.5 mph - N/A   Clear
7:15 PM 71.6 °F 53.6 °F 53% 30.09 in - North 8.1 mph - N/A   Clear
7:45 PM 71.6 °F 55.4 °F 57% 30.09 in - North 8.1 mph - N/A   Clear
8:00 PM 72 °F 55 °F 44% 30.09 in 28 mi North 8.9 mph - -   Overcast
8:15 PM 71.6 °F 55.4 °F 57% 30.09 in - North 10.4 mph - N/A   Clear
8:27 PM 69.8 °F 55.4 °F 60% 30.09 in 6.2 mi NNE 10.4 mph - N/A Rain Rain Showers
8:45 PM 69.8 °F 55.4 °F 60% 30.09 in - NNE 12.7 mph - N/A   Clear
9:15 PM 69.8 °F 55.4 °F 60% 30.09 in - NNE 12.7 mph - N/A   Clear
9:45 PM 69.8 °F 53.6 °F 56% 30.09 in - NNE 10.4 mph - N/A   Clear
10:45 PM 68.0 °F 53.6 °F 60% 30.09 in - NNE 9.2 mph - N/A   Clear
11:08 PM 66.2 °F 53.6 °F 64% 30.09 in 6.2 mi NNE 9.2 mph - N/A Thunderstorm Thunderstorm
11:45 PM 66.2 °F 51.8 °F 60% 30.09 in 6.2 mi NNE 8.1 mph - N/A Thunderstorm Thunderstorm